Tracking 19192 objects as of 18-Jun-2018
HD Live streaming from Space Station
objects crossing your sky now

FENGYUN 1C DEB

Track FENGYUN 1C DEB now!
10-day predictions


NORAD ID: 30759
Int'l Code: 1999-025ATV
Perigee: 801.7 km
Apogee: 824.3 km
Inclination: 99.3 °
Period: 101.0 minutes
Semi major axis: 7184 km
RCS: 0.026 m2 (small)
Launch date: May 10, 1999
Source: People's Republic of China (PRC)
Launch site: Taiyaun Space Center, China (TSC)

Note: This is SATELLITE DEBRIS
aabbcc
Your satellite tracking list
Your tracking list is empty




NASA's NSSDC Master Catalog

Two Line Element Set (TLE):
1 30759U 99025ATV 18168.64359980  .00000487  00000-0  22543-3 0  9995
2 30759  99.2772  48.8014 0015731 131.9071 281.9761 14.25774707585248
Source of the keplerian elements: AFSPC